Regional Weather Roundup
Issued by NWS

Home | Current Version | Previous Version | Graphics & Text | Print | Product List | Glossary On
Versions: 1 2 3 4 5 6 7 8 9 10 11 12 13 14 15 16 17 18 19 20 21 22 23 24 25 26 27 28 29 30 31 32 33 34 35 36 37 38 39 40 41 42 43 44 45 46 47 48 49 50
000
ASUS43 KDMX 201407
RWRIA

WEATHER ROUNDUP FOR IOWA
NATIONAL WEATHER SERVICE DES MOINES IA
800 AM CST THU NOV 20 2014

NOTE: "FAIR" INDICATES FEW OR NO CLOUDS BELOW 12,000 FEET WITH NO
SIGNIFICANT WEATHER AND/OR OBSTRUCTIONS TO VISIBILITY.

* - THESE STATIONS ARE NOT NWS STATIONS...THUS NOT UNDER NWS
QUALITY CONTROL.  THEY ALSO DO NOT REPORT WEATHER SUCH
AS PRECIPITATION OR FOG.

IAZ001>003-012>014-020>022-031>034-043>046-201500-
   NORTHWEST IOWA

CITY           SKY/WX    TMP DP  RH WIND       PRES   REMARKS
CARROLL *      CLEAR      9   5  85 W7        30.17R WCI  -3
CHEROKEE *     CLEAR     10   9  92 CALM      30.17R
DENISON *      CLOUDY    14  10  85 CALM      30.16R
LE MARS *      CLOUDY    18  12  79 NW7       30.19R WCI   8
ORANGE CITY *  CLEAR      9   7  92 CALM      30.15R
SHELDON *      CLEAR      3   0  85 W5        30.14R WCI  -6
SIOUX CITY     MOCLDY    18  12  77 NW7       30.20R WCI   9
SPENCER        PTCLDY     4   0  83 W7        30.14R WCI  -8
STORM LAKE *   CLEAR      9   3  78 W12       30.15R WCI  -6
$$

IAZ055>058-069>071-079>083-090>094-201500-
   SOUTHWEST IOWA

CITY           SKY/WX    TMP DP  RH WIND       PRES   REMARKS
ATLANTIC *     MOCLDY    12   9  85 SW5       30.19R WCI   4
AUDUBON *      CLEAR     16   9  73 CALM      30.17R
CLARINDA *     CLEAR     12  10  92 CALM      30.24R
COUNCIL BLFS * CLEAR     14  14 100 W5        30.19R WCI   6
CRESTON *      CLEAR     12   9  85 W5        30.18R WCI   4
HARLAN  *      MOCLDY    10   7  85 W7        30.22R WCI   0
LAMONI         CLEAR     15  11  83 W8        30.19R WCI   4
RED OAK *      CLEAR     16  12  86 W7        30.21S WCI   6
SHENANDOAH *   CLEAR     14  10  85 CALM      30.24R
$$

IAZ047>049-059>061-072>074-084-201500-
   CENTRAL IOWA

CITY           SKY/WX    TMP DP  RH WIND       PRES   REMARKS
AMES           CLEAR     14   8  77 W8        30.17R WCI   3
ANKENY *       CLEAR     18  10  73 W7        30.18R WCI   8
CHARITON *     CLEAR     18  10  73 W7        30.18R WCI   8
DES MOINES     PTCLDY    18  10  71 W5        30.18R WCI  11
GRINNELL*      CLEAR     16  10  79 W9        30.15R WCI   4
KNOXVILLE *    CLEAR     18  10  73 W9        30.16R WCI   6
MARSHALLTOWN   CLEAR     12   7  80 W7        30.15R WCI   1
PELLA *        CLEAR     19  14  79 W9        30.19R WCI   9
PERRY *          N/A     12   9  85 W9        30.17S WCI   0
$$

IAZ004>006-015-016-023>025-035-036-201500-
   NORTH CENTRAL IOWA

CITY           SKY/WX    TMP DP  RH WIND       PRES   REMARKS
ALGONA *       CLEAR      5   1  85 W9        30.14R WCI  -9
CLARION *      CLEAR      7   3  85 W7        30.14R WCI  -5
ESTHERVILLE    CLEAR      2  -1  88 W10       30.12R WCI -14
FORT DODGE *   CLEAR     10   5  79 W3        30.16R
MASON CITY     CLEAR      6   3  87 W10       30.13R WCI  -9
FOREST CITY *  CLEAR      5   1  85 W5        30.12R WCI  -4
IOWA FALLS *     N/A      9   3  78 W9        30.14R WCI  -5
$$

IAZ007>011-017>019-026>030-037>042-050>054-066-201500-
   NORTHEAST IOWA

CITY           SKY/WX    TMP DP  RH WIND       PRES   REMARKS
CEDAR RAPIDS   CLEAR     15  10  80 W15       30.13R WCI   0
CHARLES CITY * CLEAR      9   3  78 W10       30.11R WCI  -6
CLINTON *      CLEAR     16  10  79 W14       30.13R WCI   1
DECORAH *      CLEAR      9   3  78 W6        30.06R WCI  -1
DUBUQUE        CLEAR     13   8  81 NW13      30.07R WCI  -2
MONTICELLO *   CLEAR     14   9  79 W12       30.11R WCI   0
OELWEIN *      CLEAR     10   5  79 W10       30.11R WCI  -3
WATERLOO       CLEAR     13   7  77 W9        30.13R WCI   1
$$

IAZ064-065-067-068-078-201500-
   EAST CENTRAL IOWA

CITY           SKY/WX    TMP DP  RH WIND       PRES   REMARKS
DAVENPORT      CLEAR     18  11  74 W14       30.13R WCI   4
IOWA CITY      CLEAR     17  11  77 W9        30.17R WCI   6
MT. PLEASANT * CLEAR     21  12  68 W9        30.18R WCI  11
MUSCATINE *    CLEAR     21  12  68 W12       30.17R WCI   9
QUAD CITIES    CLEAR     21  12  68 W15       30.14R WCI   8
$$

IAZ062-063-075>077-085>089-095>099-201500-
   SOUTHEAST IOWA

CITY           SKY/WX    TMP DP  RH WIND       PRES   REMARKS
BURLINGTON     CLEAR     22  14  71 W8        30.17R WCI  12
FAIRFIELD *    CLEAR     18  10  73 W9        30.17R WCI   6
FORT MADISON * CLEAR     25  16  68 W10       30.19R WCI  15
KEOKUK *       CLEAR     23  16  74 W6        30.19R WCI  16
OSKALOOSA *      N/A     14  10  85 W8        30.18R WCI   3
CENTERVILLE *  CLEAR     19  14  79 W6        30.19R WCI  11
OTTUMWA        CLEAR     18  10  71 W7        30.17R WCI   9
WASHINGTON *   CLEAR     19  14  79 W10       30.16R WCI   8
$$

ABBREVIATIONS USED IN REMARKS
   TC - TEMPERATURES IN CELSIUS
  WCI - WIND CHILL INDEX
   HX - HEAT INDEX
  VSB - VISIBILITY
$$




USA.gov is the U.S. government's official web portal to all federal, state and local government web resources and services.